Location: Ford County Road and Bridge Department
(37.7686°N, 99.9762°W)
Time: 01:46:02
(UTC+00:00)

Cosmos 1953 Rocket - Pass Details

Date: 18 January 2020
Orbit: 603 x 636 km, 82.5° (Epoch: 19 February)

Event Time Altitude Azimuth Distance (km) Brightness Sun altitude
Rises 01:46:34 0° 188° (S) 2,905 7.2 -23.4°
Reaches altitude 10° 01:48:47 10° 189° (S) 2,006 6.4 -23.8°
Maximum altitude 01:53:14 82° 276° (W) 645 3.6 -24.7°
Enters shadow 01:53:42 70° 345° (NNW) 675 3.6 -24.8°
